Theta_e
335 338 342 341 341 342 342 338 336 335 335 334 335 340 340 340 341 341 341 339 337 337 337 337 332 327 326 331 335 337 339 339 338 338 339 338 338 338 339 341 341 341 340
332 337 342 343 342 343 340 337 336 336 335 335 334 334 339 340 341 340 339 338 336 336 336 335 334 325 325 329 335 337 337 336 335 334 334 333 332 332 334 339 340 341 341
333 335 339 342 343 343 342 340 338 336 336 335 333 332 335 338 338 338 336 334 332 334 335 334 327 326 324 323 331 336 337 336 335 334 333 333 334 333 329 329 335 337 340
334 335 337 340 342 342 342 341 339 338 337 335 333 332 334 336 337 335 334 333 333 334 334 331 322 323 324 323 324 329 333 333 330 333 334 334 335 336 336 329 327 327 330
332 334 336 338 342 342 342 342 340 338 336 335 333 331 330 331 333 335 335 333 333 332 331 328 322 320 319 320 322 324 325 328 329 334 334 335 335 335 333 330 330 330 328
332 334 335 337 340 341 341 341 340 339 336 335 334 332 332 335 335 335 334 333 332 329 330 328 325 321 316 313 315 321 322 324 327 332 334 334 334 335 333 331 330 330 329
330 334 335 336 338 341 341 341 340 339 336 336 335 333 336 336 335 334 332 332 331 328 327 328 326 322 315 306 305 312 319 322 324 326 331 332 332 331 331 329 329 329 329
329 333 334 335 337 340 341 341 340 338 336 338 335 337 337 335 334 332 331 331 330 327 327 327 325 320 310 301 300 305 313 317 321 323 324 327 328 328 327 327 326 328 329
330 333 335 335 335 337 340 340 339 338 336 337 335 336 337 335 335 333 332 331 328 326 325 326 324 317 304 300 300 304 308 311 313 314 316 319 320 320 319 319 323 325 327
328 333 334 334 335 337 339 340 339 339 338 336 335 334 336 336 336 334 333 331 328 326 323 324 322 314 302 300 301 303 304 305 306 307 309 310 312 314 312 316 319 321 321
325 327 332 335 336 336 337 339 338 338 338 337 334 333 335 336 336 335 334 332 329 327 323 322 320 313 302 300 300 302 304 304 305 306 307 307 308 310 312 311 313 316 317
309 313 323 330 335 337 342 340 339 339 338 335 333 332 332 334 333 332 333 332 329 327 324 322 320 313 303 300 299 300 301 301 302 303 303 303 304 305 313 310 311 314 316
305 307 311 318 327 335 340 337 336 339 336 334 334 333 333 333 332 331 332 330 328 327 325 321 319 315 308 302 299 299 300 300 301 301 301 301 301 301 313 314 314 318 319
304 306 308 309 316 327 336 340 337 335 339 336 332 333 334 334 332 332 331 331 329 327 325 323 320 317 312 305 299 299 300 300 300 300 301 301 300 301 306 316 318 319 318
303 305 308 310 310 313 327 337 338 335 334 334 333 331 331 331 331 330 330 330 329 327 326 324 322 318 315 310 304 301 301 300 300 300 300 300 301 300 302 318 318 318 318
304 307 309 313 313 311 319 329 336 336 336 332 331 331 332 332 332 331 328 327 325 328 326 325 324 320 316 313 309 302 300 300 300 299 299 300 300 301 303 317 317 319 319
302 306 310 316 319 318 320 326 329 332 331 331 331 332 331 332 330 330 330 328 327 328 327 325 324 322 321 316 313 309 302 300 300 299 299 299 300 301 304 309 318 318 319
302 306 311 318 322 323 325 327 328 329 328 327 327 328 328 328 329 331 330 329 328 328 328 325 324 321 319 318 315 312 307 302 299 298 298 298 299 300 302 305 311 316 319
301 305 309 315 320 322 324 323 323 323 323 322 323 324 324 325 325 324 324 324 324 324 325 324 321 319 317 316 315 312 308 305 302 299 298 297 298 299 300 302 306 310 317
300 303 306 309 312 314 316 317 317 317 316 316 317 319 320 320 321 320 319 319 319 318 316 315 316 316 313 312 311 310 310 309 306 305 303 299 297 297 298 301 303 307 309
300 303 305 308 308 311 311 310 308 304 304 306 307 309 311 313 315 316 315 314 312 313 312 312 312 311 311 309 305 307 308 308 308 306 302 300 298 297 297 298 301 304 309
295 297 300 302 306 308 308 306 304 302 300 301 301 302 303 304 305 305 306 308 309 309 308 307 307 307 306 307 303 299 298 302 300 298 297 298 298 297 296 296 298 301 304
294 295 297 298 300 303 303 304 303 301 299 298 297 297 297 298 299 300 301 300 300 301 301 303 304 302 302 303 302 301 299 297 293 303 303 299 297 297 297 297 297 297 299
290 292 294 296 297 298 299 299 298 294 289 288 288 289 290 291 291 293 294 295 296 296 296 296 298 300 300 299 299 299 298 295 295 296 298 300 299 298 297 297 296 296 296
289 289 289 290 291 291 292 292 290 287 286 286 286 286 286 286 286 286 286 287 288 288 290 292 294 295 296 297 297 296 296 295 295 293 295 295 296 299 299 297 297 297 297
288 288 288 288 287 288 288 288 287 287 286 286 285 285 285 285 285 285 285 285 285 285 285 285 286 288 290 293 294 295 295 294 295 294 293 296 295 296 298 298 298 298 297
Wind_Speed
12 22 19 19 18 15 13 13 12 10 10 9 9 11 10 10 10 12 11 10 9 10 9 9 9 9 9 9 10 11 10 9 12 12 12 11 11 12 13 14 14 12 11
13 24 22 18 17 15 14 13 10 8 7 7 7 8 9 8 9 9 8 6 5 8 7 7 8 8 7 8 9 10 7 8 9 10 9 10 10 9 9 11 11 13 15
14 25 23 20 17 16 14 13 10 8 7 7 6 7 9 9 6 4 3 4 4 5 6 6 7 6 6 5 6 6 6 6 6 6 7 9 9 8 8 7 8 11 12
12 22 23 21 19 17 14 12 10 8 7 6 6 6 8 8 7 4 2 3 4 5 6 5 5 4 4 4 3 3 3 4 4 5 6 8 9 9 9 8 8 8 8
12 19 22 22 19 19 17 14 12 11 9 8 7 7 6 6 5 2 1 1 3 4 3 3 3 3 3 2 1 1 1 2 3 4 5 7 7 7 8 10 8 8 7
10 15 20 22 22 21 19 17 15 13 11 9 8 8 7 5 4 3 4 2 4 6 1 2 4 4 5 3 3 2 2 1 3 3 4 5 6 6 8 8 6 7 7
8 12 17 22 22 20 19 17 16 14 12 11 10 9 10 10 8 7 5 3 4 6 4 4 5 6 6 5 4 3 4 3 3 3 3 3 2 0 2 4 2 3 4
7 12 14 20 22 21 19 19 18 16 14 13 11 11 12 10 9 7 5 5 5 8 3 4 6 6 6 3 1 3 4 4 4 4 4 4 4 4 4 5 5 3 4
6 10 13 16 21 23 22 21 18 17 16 15 13 12 12 11 9 7 6 6 6 6 5 6 7 7 5 2 1 2 3 4 4 4 5 5 4 5 5 4 5 5 6
5 9 11 13 17 21 22 19 18 18 17 16 15 14 14 13 11 9 8 7 6 6 6 7 7 7 4 2 2 1 2 2 3 3 3 3 3 4 4 3 4 4 5
6 8 11 14 16 19 21 21 19 19 18 17 16 15 14 14 14 12 10 8 7 7 7 8 8 7 4 4 4 3 3 3 4 3 4 4 4 4 4 4 4 4 5
13 9 10 14 17 18 19 19 22 21 19 17 16 15 15 14 14 14 13 11 8 8 8 8 8 9 5 5 5 5 5 6 6 5 5 5 5 5 5 5 4 4 4
16 9 8 11 17 20 20 19 18 20 19 18 18 18 17 16 15 17 15 12 11 11 9 10 12 12 9 8 7 7 7 7 7 7 7 6 7 6 5 5 5 3 3
18 17 12 9 14 20 21 20 18 18 19 20 17 19 18 17 17 17 16 14 13 12 12 13 14 14 12 10 9 9 9 9 9 9 8 8 8 8 6 6 5 4 5
21 20 17 13 9 16 21 20 16 13 13 15 19 17 18 17 18 17 17 16 15 14 13 13 17 15 14 13 13 13 12 11 11 10 10 10 9 9 8 6 7 6 5
20 21 19 16 11 7 14 17 15 10 7 8 10 14 17 19 20 20 19 17 20 17 15 16 14 14 14 15 14 14 14 14 14 13 12 11 10 9 8 7 8 7 6
19 19 19 18 14 7 3 6 7 6 5 5 6 8 9 11 13 18 19 17 18 18 17 18 16 15 16 16 16 16 17 16 16 16 15 14 12 10 9 10 8 9 9
20 22 21 20 18 16 13 12 9 6 5 6 7 6 8 11 14 17 16 15 16 17 18 21 19 17 15 15 17 17 18 18 18 17 18 17 16 14 12 11 12 11 10
21 23 25 27 26 26 24 23 21 21 20 19 17 16 15 13 9 8 10 12 13 14 16 20 19 17 15 14 15 17 18 19 19 20 21 20 18 17 16 14 14 14 15
23 24 26 25 28 31 31 30 28 27 25 25 24 21 20 19 17 17 16 14 12 10 12 12 12 13 13 14 14 17 19 20 20 22 23 23 22 20 20 18 17 16 16
28 29 29 29 27 22 24 29 31 32 29 29 26 24 24 22 21 20 19 18 18 16 13 11 10 11 12 13 13 11 14 18 19 20 23 24 24 23 22 22 20 19 18
27 30 31 29 28 29 29 27 23 26 28 26 25 23 22 20 20 21 20 20 19 17 17 17 15 12 8 10 5 8 3 7 5 10 11 15 23 25 24 23 23 22 22
27 29 30 30 29 26 25 22 21 22 24 24 25 24 24 22 20 18 18 18 19 19 18 16 15 13 12 13 11 3 3 2 7 12 21 16 13 18 19 24 26 26 25
20 24 27 28 29 28 29 29 30 31 29 25 27 26 27 27 27 26 23 22 20 19 20 20 17 13 9 11 14 7 12 13 3 4 5 23 26 23 16 19 22 23 26
17 21 24 26 28 26 27 29 32 34 30 27 26 27 28 28 29 29 28 28 28 26 24 21 19 18 15 12 11 12 13 10 12 9 7 5 22 31 31 30 27 26 25
16 18 21 24 25 25 26 28 28 28 26 26 25 25 25 25 26 26 25 25 25 25 25 23 22 21 20 16 14 12 11 7 8 11 5 15 16 20 27 30 28 27 28
Wind_Direction
184 174 171 176 169 174 170 166 159 150 137 125 118 111 113 116 119 119 110 107 98 76 62 53 52 65 64 62 77 81 83 92 91 90 85 78 77 77 75 71 72 73 74
176 176 173 180 177 180 172 172 171 160 143 137 134 122 116 121 120 115 111 99 67 66 57 48 49 65 72 75 79 97 92 97 83 79 80 73 67 72 78 73 72 73 67
174 177 178 178 179 182 179 180 174 174 166 156 150 142 141 136 135 145 100 59 48 65 67 62 48 57 65 78 91 89 96 96 75 73 82 75 65 62 65 66 69 64 58
177 181 184 184 186 186 195 197 195 193 183 173 162 158 152 159 166 152 93 60 51 53 61 54 48 57 55 60 74 93 99 83 65 100 100 79 72 63 62 50 53 57 64
184 188 191 191 190 197 201 202 199 198 195 190 185 178 173 176 163 143 334 357 26 18 43 41 12 17 12 28 63 100 113 87 89 105 99 88 78 62 55 40 43 43 45
186 196 201 198 196 201 203 203 202 202 202 201 196 189 172 158 163 191 248 286 323 332 322 336 324 338 334 322 280 237 230 147 138 130 124 109 91 64 64 50 30 40 22
199 199 202 205 205 209 213 211 212 213 213 212 205 198 183 182 212 228 240 244 302 323 336 307 304 322 325 314 274 234 225 215 184 190 191 196 199 197 97 119 90 14 35
205 204 205 209 212 210 218 219 220 222 220 215 214 207 203 209 224 239 246 255 275 299 301 296 297 312 322 318 295 207 213 220 218 215 230 235 245 262 258 233 211 198 234
216 217 217 219 218 218 219 221 225 231 227 223 221 217 218 227 228 233 240 255 275 286 281 276 298 313 319 309 246 180 210 224 237 239 241 249 258 270 271 259 242 238 256
236 231 235 235 229 227 226 224 223 222 226 229 230 227 228 233 235 242 249 261 272 288 288 270 294 306 302 268 249 212 231 243 247 250 255 250 255 275 292 266 244 249 260
304 269 250 242 238 233 231 228 229 229 233 233 232 231 238 237 239 245 255 266 281 294 300 273 289 294 277 258 250 242 251 269 272 269 268 268 268 280 307 297 272 259 262
322 301 283 259 247 240 235 231 231 233 240 242 242 244 246 247 245 262 263 267 274 290 296 278 291 291 284 264 259 262 269 277 280 280 280 281 275 278 292 304 291 277 266
7 345 297 261 247 244 237 233 236 234 234 241 243 243 244 253 254 250 253 257 274 283 288 284 290 300 295 275 269 272 277 279 281 280 282 286 277 276 287 290 283 275 264
7 5 351 304 257 238 239 231 230 235 233 229 236 249 245 247 250 246 252 253 257 269 282 292 292 293 292 281 275 275 279 282 283 282 284 285 282 278 278 284 274 265 275
9 5 3 347 302 245 231 234 226 231 242 249 246 247 253 252 253 254 256 253 260 263 272 290 291 289 289 287 281 282 279 278 279 281 284 287 287 275 269 270 266 269 266
14 10 7 8 350 274 224 231 233 233 240 244 256 261 263 264 263 255 257 261 267 260 267 279 284 283 284 285 284 282 282 280 281 281 281 281 284 281 267 259 263 261 257
28 27 25 24 26 48 165 206 230 244 253 267 273 286 292 278 268 259 258 262 266 260 261 267 266 271 285 287 286 285 284 283 282 281 280 278 277 278 270 256 251 260 257
40 44 49 53 60 76 90 101 110 117 84 54 39 10 341 310 278 263 254 263 268 263 266 263 260 259 265 279 288 290 287 286 285 284 281 279 276 273 268 259 250 246 247
49 53 61 70 77 87 93 95 93 88 77 65 57 47 41 36 17 339 320 303 291 277 271 262 256 256 266 278 288 291 289 287 286 284 281 280 278 275 273 268 258 249 246
65 67 69 77 85 88 90 90 86 82 78 70 61 55 50 46 39 34 26 11 354 338 321 297 274 269 284 294 298 296 292 290 288 287 285 280 278 276 274 271 266 258 254
74 73 73 78 81 91 89 82 76 72 70 69 66 60 53 46 42 42 41 36 31 23 13 3 345 332 325 320 317 310 313 304 294 288 279 275 274 273 272 272 270 265 257
68 71 72 74 78 81 83 86 89 82 74 72 66 58 54 52 50 45 40 38 36 37 32 25 15 355 343 343 332 323 340 327 315 336 334 316 288 273 269 270 270 267 265
68 73 76 79 82 89 94 99 100 91 80 70 63 61 57 53 50 49 49 46 40 35 34 30 22 15 353 338 336 284 318 289 322 307 311 329 329 325 303 285 278 274 271
72 80 82 82 83 87 92 91 90 87 81 74 72 70 66 61 57 53 51 49 48 40 30 27 20 17 5 346 339 317 278 276 294 312 284 302 305 308 313 308 301 292 284
76 77 82 83 82 82 85 88 90 90 90 85 77 71 65 61 58 54 51 49 47 45 41 33 24 21 17 2 353 325 318 304 275 253 299 306 301 295 298 301 299 301 298
102 95 90 88 86 85 84 84 86 89 85 80 72 67 62 58 53 49 46 45 44 40 38 35 35 31 22 13 3 355 337 315 314 300 284 298 287 292 295 296 296 295 292